Weather History for Waco, TX

Change the Weather History Date:

Saturday, January 18, 2014

  Actual Average Record
Temperature  
Mean Temperature 49 °F 47 °F  
Max Temperature 68 °F 58 °F 82 °F (2000)
Min Temperature 30 °F 36 °F -1 °F (1930)
Degree Days  
Heating Degree Days 16 18  
Month to date heating degree days 338 329  
Since 1 July heating degree days 1404 1181  
Cooling Degree Days 0 0  
Month to date cooling degree days 0 0  
Year to date cooling degree days 0 0  
Moisture  
Dew Point 31 °F    
Average Humidity 57    
Maximum Humidity 85    
Minimum Humidity 28    
Precipitation  
Precipitation 0.00 in 0.07 in 1.89 in (1945)
Month to date precipitation 0.28 1.16  
Year to date precipitation 0.28 1.16  
Snow  
Snow 0.00 in 0.10 in 2.00 in (1930)
Month to date snowfall 0.0 0.2  
Since 1 July snowfall T 0.3  
Snow Depth 0.00 in    
Sea Level Pressure  
Sea Level Pressure 30.16 in    
Wind  
Wind Speed 9 mph (SW)    
Max Wind Speed 20 mph    
Max Gust Speed 26 mph    
Visibility 10 miles    
Events      
T = Trace of Precipitation, MM = Missing Value Source: NWS Daily Summary

Daily Weather History Graph

Daily Weather History Graph

Search for Another Location

Airport:

Trip Planner

Search our weather history database for the weather conditions in past years. The results will help you decide how hot, cold, wet, or windy it might be!

Date:

Astronomy

Jan. 18, 2014 Rise Set
Actual Time 7:28 AM CST 5:50 PM CST
Civil Twilight 7:02 AM CST 6:17 PM CST
Nautical Twilight 6:32 AM CST 6:46 PM CST
Astronomical Twilight 6:03 AM CST 7:15 PM CST
Moon 8:21 PM CST (1/18) 8:39 AM CST (1/18)
Length of Visible Light 11h 14m
Length of Day
10h 22m
Waning Gibbous, 94% of the Moon is Illuminated
Jan 18
Waning Gibbous
Jan 23
Last Quarter
Jan 30
New
Feb 6
First Quarter
Feb 14
Full

Hourly Weather History & Observations

Time (CST) Temp. Windchill Dew Point Humidity Pressure Visibility Wind Dir Wind Speed Gust Speed Precip Events Conditions
12:51 AM 34.0 °F 27.2 °F 24.1 °F 67% 30.22 in 10.0 mi SSW 8.1 mph - N/A   Clear
1:51 AM 33.1 °F 26.1 °F 24.1 °F 70% 30.22 in 10.0 mi SSW 8.1 mph - N/A   Clear
2:51 AM 34.0 °F 28.0 °F 24.1 °F 67% 30.22 in 10.0 mi SSW 6.9 mph - N/A   Clear
3:51 AM 32.0 °F 26.4 °F 24.1 °F 73% 30.21 in 10.0 mi SSW 5.8 mph - N/A   Clear
4:51 AM 30.9 °F 24.3 °F 24.1 °F 76% 30.21 in 10.0 mi SSW 6.9 mph - N/A   Clear
5:51 AM 33.1 °F 26.1 °F 25.0 °F 72% 30.21 in 10.0 mi SSW 8.1 mph - N/A   Clear
6:51 AM 33.1 °F 26.1 °F 25.0 °F 72% 30.21 in 10.0 mi SSW 8.1 mph - N/A   Clear
7:51 AM 34.0 °F 28.0 °F 26.1 °F 73% 30.21 in 10.0 mi SSW 6.9 mph - N/A   Clear
8:51 AM 41.0 °F 36.4 °F 27.0 °F 57% 30.22 in 10.0 mi SSW 6.9 mph - N/A   Clear
9:51 AM 48.9 °F - 27.0 °F 43% 30.22 in 10.0 mi SSW 11.5 mph - N/A   Clear
10:51 AM 57.0 °F - 25.0 °F 29% 30.22 in 10.0 mi SSW 18.4 mph - N/A   Clear
11:51 AM 61.0 °F - 30.9 °F 32% 30.17 in 10.0 mi SSW 12.7 mph - N/A   Clear
12:51 PM 64.9 °F - 33.1 °F 31% 30.12 in 10.0 mi SSW 17.3 mph 23.0 mph N/A   Clear
1:51 PM 66.9 °F - 35.1 °F 31% 30.08 in 10.0 mi SSW 17.3 mph 25.3 mph N/A   Clear
2:51 PM 68.0 °F - 35.1 °F 30% 30.07 in 10.0 mi SW 13.8 mph - N/A   Clear
3:51 PM 68.0 °F - 36.0 °F 31% 30.07 in 10.0 mi WSW 11.5 mph - N/A   Clear
4:51 PM 66.0 °F - 37.0 °F 34% 30.08 in 10.0 mi SW 6.9 mph - N/A   Clear
5:51 PM 57.0 °F - 37.0 °F 47% 30.09 in 10.0 mi WSW 5.8 mph - N/A   Clear
6:51 PM 46.9 °F - 37.0 °F 68% 30.11 in 10.0 mi WSW 3.5 mph - N/A   Clear
7:51 PM 44.1 °F 40.8 °F 36.0 °F 73% 30.12 in 10.0 mi SW 5.8 mph - N/A   Clear
8:51 PM 44.1 °F 39.5 °F 37.0 °F 76% 30.12 in 10.0 mi SSW 8.1 mph - N/A   Clear
9:51 PM 46.0 °F - 37.0 °F 71% 30.15 in 10.0 mi Calm Calm - N/A   Clear
10:51 PM 37.0 °F 34.5 °F 33.1 °F 86% 30.17 in 10.0 mi South 3.5 mph - N/A   Clear
11:51 PM 37.0 °F 34.5 °F 33.1 °F 86% 30.19 in 10.0 mi NNW 3.5 mph - N/A   Clear